TimeCST,TemperatureF,Dew PointF,Humidity,Sea Level PressureIn,VisibilityMPH,Wind Direction,Wind SpeedMPH,Gust SpeedMPH,PrecipitationIn,Events,Conditions,WindDirDegrees,DateUTC
12:15 AM,3.2,-2.2,78,29.97,10.0,Calm,Calm,-,N/A,,Mostly Cloudy,0,2013-02-03 06:15:00
12:35 AM,3.2,-0.4,85,29.96,10.0,Calm,Calm,-,N/A,,Mostly Cloudy,0,2013-02-03 06:35:00
12:55 AM,3.2,-2.2,78,29.95,7.0,Calm,Calm,-,N/A,,Mostly Cloudy,0,2013-02-03 06:55:00
1:15 AM,3.2,-0.4,85,29.96,10.0,West,4.6,-,N/A,,Overcast,260,2013-02-03 07:15:00
1:35 AM,5.0,-0.4,78,29.95,10.0,Calm,Calm,-,N/A,,Overcast,0,2013-02-03 07:35:00
2:15 AM,5.0,-0.4,78,29.94,5.0,Calm,Calm,-,N/A,Snow,Light Snow,0,2013-02-03 08:15:00
2:35 AM,5.0,-0.4,78,29.93,10.0,Calm,Calm,-,N/A,Snow,Light Snow,0,2013-02-03 08:35:00
2:55 AM,5.0,1.4,85,29.92,10.0,SSW,3.5,-,N/A,,Overcast,210,2013-02-03 08:55:00
3:15 AM,6.8,1.4,79,29.91,5.0,SW,3.5,-,N/A,Snow,Light Snow,220,2013-02-03 09:15:00
3:55 AM,6.8,1.4,79,29.90,5.0,Calm,Calm,-,N/A,Snow,Light Snow,0,2013-02-03 09:55:00
4:15 AM,8.6,1.4,73,29.90,7.0,Calm,Calm,-,N/A,Snow,Light Snow,0,2013-02-03 10:15:00
4:35 AM,8.6,3.2,79,29.89,7.0,Calm,Calm,-,N/A,Snow,Light Snow,0,2013-02-03 10:35:00
4:55 AM,8.6,3.2,79,29.90,7.0,WSW,3.5,-,N/A,Snow,Light Snow,240,2013-02-03 10:55:00
5:15 AM,8.6,3.2,79,29.90,7.0,WSW,3.5,-,N/A,Snow,Light Snow,250,2013-02-03 11:15:00
5:35 AM,10.4,3.2,73,29.90,7.0,WSW,3.5,-,N/A,Snow,Light Snow,240,2013-02-03 11:35:00
6:15 AM,10.4,5.0,79,29.90,5.0,West,4.6,-,N/A,Snow,Light Snow,260,2013-02-03 12:15:00
6:35 AM,10.4,5.0,79,29.91,7.0,West,6.9,-,N/A,Snow,Light Snow,280,2013-02-03 12:35:00
6:55 AM,10.4,5.0,79,29.91,7.0,West,6.9,-,N/A,Snow,Light Snow,280,2013-02-03 12:55:00
7:15 AM,10.4,5.0,79,29.91,7.0,WNW,5.8,-,N/A,Snow,Light Snow,290,2013-02-03 13:15:00
7:35 AM,10.4,5.0,79,29.91,5.0,West,9.2,-,N/A,Snow,Light Snow,280,2013-02-03 13:35:00
7:55 AM,10.4,5.0,79,29.92,5.0,West,6.9,-,N/A,Snow,Light Snow,280,2013-02-03 13:55:00
8:15 AM,12.2,5.0,73,29.93,7.0,WNW,9.2,-,N/A,Snow,Light Snow,290,2013-02-03 14:15:00
8:35 AM,12.2,5.0,73,29.93,10.0,WNW,6.9,-,N/A,,Overcast,290,2013-02-03 14:35:00
8:55 AM,12.2,3.2,67,29.93,10.0,WNW,8.1,-,N/A,,Overcast,300,2013-02-03 14:55:00
9:15 AM,12.2,3.2,67,29.92,10.0,NW,11.5,16.1,N/A,,Scattered Clouds,310,2013-02-03 15:15:00
9:35 AM,14.0,3.2,62,29.93,7.0,WNW,11.5,-,N/A,,Clear,300,2013-02-03 15:35:00
9:55 AM,14.0,3.2,62,29.94,7.0,West,12.7,18.4,N/A,,Clear,280,2013-02-03 15:55:00
10:15 AM,14.0,3.2,62,29.95,7.0,WNW,13.8,19.6,N/A,,Scattered Clouds,290,2013-02-03 16:15:00
10:55 AM,15.8,3.2,58,29.96,10.0,West,13.8,18.4,N/A,,Mostly Cloudy,280,2013-02-03 16:55:00
11:15 AM,14.0,3.2,62,29.95,10.0,West,12.7,18.4,N/A,,Mostly Cloudy,280,2013-02-03 17:15:00
11:35 AM,15.8,3.2,58,29.95,10.0,WNW,10.4,-,N/A,,Scattered Clouds,300,2013-02-03 17:35:00
11:55 AM,15.8,1.4,53,29.94,10.0,WNW,9.2,17.3,N/A,,Scattered Clouds,290,2013-02-03 17:55:00
12:15 PM,17.6,3.2,53,29.94,10.0,WNW,8.1,-,N/A,,Scattered Clouds,290,2013-02-03 18:15:00
12:35 PM,17.6,1.4,49,29.94,10.0,NW,12.7,16.1,N/A,,Scattered Clouds,310,2013-02-03 18:35:00
12:55 PM,17.6,1.4,49,29.94,10.0,WNW,10.4,-,N/A,,Clear,290,2013-02-03 18:55:00
1:15 PM,17.6,3.2,53,29.94,10.0,WNW,11.5,18.4,N/A,,Clear,290,2013-02-03 19:15:00
1:35 PM,17.6,3.2,53,29.94,10.0,WNW,11.5,-,N/A,,Clear,290,2013-02-03 19:35:00
1:55 PM,19.4,3.2,49,29.94,10.0,WNW,12.7,19.6,N/A,,Scattered Clouds,290,2013-02-03 19:55:00
2:15 PM,19.4,3.2,49,29.95,10.0,WNW,10.4,16.1,N/A,,Scattered Clouds,290,2013-02-03 20:15:00
2:55 PM,19.4,3.2,49,29.95,10.0,West,10.4,16.1,N/A,,Scattered Clouds,280,2013-02-03 20:55:00
3:15 PM,19.4,1.4,46,29.96,10.0,West,12.7,21.9,N/A,,Scattered Clouds,280,2013-02-03 21:15:00
3:35 PM,19.4,1.4,46,29.95,10.0,NW,11.5,16.1,N/A,,Clear,310,2013-02-03 21:35:00
3:55 PM,17.6,1.4,49,29.96,10.0,WNW,9.2,-,N/A,,Clear,290,2013-02-03 21:55:00
4:15 PM,17.6,1.4,49,29.95,10.0,WNW,8.1,-,N/A,,Clear,290,2013-02-03 22:15:00
4:55 PM,17.6,1.4,49,29.96,10.0,WNW,8.1,-,N/A,,Clear,290,2013-02-03 22:55:00
5:15 PM,15.8,1.4,53,29.96,10.0,WNW,6.9,-,N/A,,Clear,300,2013-02-03 23:15:00
5:55 PM,14.0,1.4,57,29.97,10.0,West,4.6,-,N/A,,Clear,280,2013-02-03 23:55:00
6:15 PM,12.2,1.4,62,29.97,10.0,West,3.5,-,N/A,,Clear,280,2013-02-04 00:15:00
6:35 PM,12.2,1.4,62,29.97,10.0,WNW,4.6,-,N/A,,Clear,300,2013-02-04 00:35:00
6:55 PM,10.4,1.4,67,29.98,10.0,West,4.6,-,N/A,,Clear,260,2013-02-04 00:55:00
7:35 PM,8.6,1.4,73,29.98,10.0,Calm,Calm,-,N/A,,Mostly Cloudy,0,2013-02-04 01:35:00
7:55 PM,8.6,1.4,73,29.98,10.0,Calm,Calm,-,N/A,,Overcast,0,2013-02-04 01:55:00
8:15 PM,10.4,1.4,67,29.98,10.0,Calm,Calm,-,N/A,,Overcast,0,2013-02-04 02:15:00
8:35 PM,10.4,1.4,67,29.98,10.0,Calm,Calm,-,N/A,,Overcast,0,2013-02-04 02:35:00
8:55 PM,10.4,3.2,73,29.99,10.0,SW,4.6,-,N/A,,Overcast,220,2013-02-04 02:55:00
9:15 PM,10.4,1.4,67,29.99,10.0,Calm,Calm,-,N/A,,Scattered Clouds,0,2013-02-04 03:15:00
9:35 PM,8.6,-0.4,67,30.00,10.0,SW,3.5,-,N/A,,Clear,230,2013-02-04 03:35:00
9:55 PM,8.6,1.4,73,30.00,10.0,West,3.5,-,N/A,,Clear,270,2013-02-04 03:55:00
10:15 PM,8.6,1.4,73,30.00,10.0,Calm,Calm,-,N/A,,Clear,0,2013-02-04 04:15:00
10:55 PM,8.6,1.4,73,29.99,10.0,Calm,Calm,-,N/A,,Overcast,0,2013-02-04 04:55:00
11:15 PM,10.4,1.4,67,29.99,10.0,Calm,Calm,-,N/A,,Overcast,0,2013-02-04 05:15:00
11:35 PM,10.4,1.4,67,29.99,10.0,Calm,Calm,-,N/A,,Overcast,0,2013-02-04 05:35:00
11:55 PM,10.4,3.2,73,29.99,10.0,Calm,Calm,-,N/A,,Overcast,0,2013-02-04 05:55:00